| time (UTC) | temp C | wind direction | speed KPH | gust KPH | rain 1hr cm | rain 24hr cm | rain mn cm | humidity % | barometer mb |
| 20260503040012 | 3 | 208 | 0.0 | 1.6 | 0.00 | 0.00 | 0.00 | 59 | 1018.2 |
| 20260503034510 | 3 | 208 | 0.0 | 1.6 | 0.00 | 0.00 | 0.00 | 58 | 1018.3 |
| 20260503033018 | 3 | 208 | 0.0 | 1.6 | 0.00 | 0.00 | 0.00 | 57 | 1018.2 |
| 20260503031507 | 3 | 208 | 0.0 | 0.0 | 0.00 | 0.00 | 0.00 | 58 | 1018.1 |
| 20260503030005 | 3 | 208 | 0.0 | 0.0 | 0.00 | 0.00 | 0.00 | 58 | 1018.1 |
| 20260503024505 | 3 | 208 | 0.0 | 1.6 | 0.00 | 0.00 | 0.00 | 57 | 1018.1 |
| 20260503023003 | 3 | 208 | 0.0 | 0.0 | 0.00 | 0.00 | 0.00 | 57 | 1017.9 |
| 20260503021602 | 3 | 208 | 0.0 | 0.0 | 0.00 | 0.00 | 0.00 | 58 | 1017.8 |
| 20260503020100 | 4 | 208 | 0.0 | 0.0 | 0.00 | 0.00 | 0.00 | 58 | 1017.6 |
| 20260503014615 | 4 | 208 | 0.0 | 0.0 | 0.00 | 0.00 | 0.00 | 58 | 1017.4 |
| 20260503013057 | 4 | 208 | 0.0 | 0.0 | 0.00 | 0.00 | 0.00 | 57 | 1017.2 |
| 20260503011554 | 5 | 208 | 0.0 | 1.6 | 0.00 | 0.00 | 0.00 | 54 | 1017.1 |
| 20260503010053 | 5 | 208 | 0.0 | 0.0 | 0.00 | 0.00 | 0.00 | 52 | 1016.9 |
| 20260503004551 | 6 | 208 | 0.0 | 0.0 | 0.00 | 0.00 | 0.00 | 50 | 1016.6 |
| 20260503003056 | 6 | 208 | 0.0 | 0.0 | 0.00 | 0.00 | 0.00 | 49 | 1016.5 |
| 20260503001606 | 6 | 208 | 0.0 | 0.0 | 0.00 | 0.00 | 0.00 | 47 | 1016.2 |
| 20260503000050 | 7 | 208 | 0.0 | 0.0 | 0.00 | 0.00 | 0.00 | 45 | 1016.1 |
| 20260502234549 | 7 | 208 | 0.0 | 0.0 | 0.00 | 0.00 | 0.00 | 44 | 1015.8 |
| 20260502233045 | 7 | 208 | 0.0 | 1.6 | 0.00 | 0.00 | 0.00 | 44 | 1015.8 |
| 20260502231543 | 8 | 208 | 0.0 | 3.2 | 0.00 | 0.00 | 0.00 | 41 | 1015.5 |
| 20260502230042 | 9 | 143 | 0.0 | 3.2 | 0.00 | 0.00 | 0.00 | 39 | 1015.3 |
| 20260502224541 | 9 | 143 | 0.0 | 3.2 | 0.00 | 0.00 | 0.00 | 41 | 1015.2 |
| 20260502223041 | 8 | 143 | 0.0 | 4.8 | 0.00 | 0.00 | 0.00 | 43 | 1015.0 |
| 20260502221544 | 8 | 186 | 0.0 | 1.6 | 0.00 | 0.00 | 0.00 | 43 | 1015.0 |
| 20260502220040 | 8 | 84 | 1.6 | 4.8 | 0.00 | 0.00 | 0.00 | 42 | 1014.6 |
| 20260502214547 | 8 | 145 | 0.0 | 3.2 | 0.00 | 0.00 | 0.00 | 38 | 1014.3 |
| 20260502213040 | 10 | 145 | 0.0 | 1.6 | 0.00 | 0.00 | 0.00 | 39 | 1014.0 |
| 20260502211538 | 10 | 150 | 0.0 | 3.2 | 0.00 | 0.00 | 0.00 | 37 | 1013.8 |
| 20260502210043 | 11 | 150 | 0.0 | 3.2 | 0.00 | 0.00 | 0.00 | 37 | 1013.5 |
| 20260502204539 | 10 | 172 | 0.0 | 3.2 | 0.00 | 0.00 | 0.00 | 39 | 1013.6 |
| 20260502203038 | 11 | 253 | 0.0 | 1.6 | 0.00 | 0.00 | 0.00 | 35 | 1013.7 |
| 20260502201538 | 12 | 253 | 0.0 | 3.2 | 0.00 | 0.00 | 0.00 | 32 | 1013.5 |
| 20260502200036 | 12 | 253 | 0.0 | 3.2 | 0.00 | 0.00 | 0.00 | 35 | 1013.5 |
| 20260502194538 | 12 | 253 | 0.0 | 3.2 | 0.00 | 0.00 | 0.00 | 32 | 1013.7 |
| 20260502193040 | 12 | 253 | 0.0 | 3.2 | 0.00 | 0.00 | 0.00 | 37 | 1013.7 |
| 20260502191535 | 11 | 253 | 1.6 | 4.8 | 0.00 | 0.00 | 0.00 | 39 | 1014.1 |
| 20260502190041 | 11 | 253 | 1.6 | 4.8 | 0.00 | 0.00 | 0.00 | 33 | 1014.2 |
| 20260502184553 | 11 | 252 | 0.0 | 3.2 | 0.00 | 0.00 | 0.00 | 35 | 1014.3 |
| 20260502183032 | 12 | 252 | 0.0 | 3.2 | 0.00 | 0.00 | 0.00 | 34 | 1014.2 |
| 20260502181532 | 12 | 251 | 0.0 | 4.8 | 0.00 | 0.00 | 0.00 | 36 | 1014.2 |
| 20260502163014 | 8 | 281 | 0.0 | 3.2 | 0.00 | 0.00 | 0.00 | 41 | 1014.9 |
| 20260502161513 | 8 | 280 | 3.2 | 9.7 | 0.00 | 0.00 | 0.00 | 46 | 1015.0 |
| 20260502151510 | 6 | 31 | 0.0 | 3.2 | 0.00 | 0.00 | 0.00 | 52 | 1015.2 |
| 20260502123106 | 4 | 49 | 0.0 | 0.0 | 0.00 | 0.00 | 0.00 | 66 | 1014.7 |
| 20260502121558 | 4 | 49 | 0.0 | 0.0 | 0.00 | 0.00 | 0.00 | 68 | 1014.3 |
| 20260502114600 | 4 | 49 | 0.0 | 0.0 | 0.00 | 0.00 | 0.00 | 68 | 1013.9 |
| 20260502113056 | 4 | 49 | 0.0 | 0.0 | 0.00 | 0.00 | 0.00 | 69 | 1014.0 |
| 20260502111556 | 5 | 49 | 0.0 | 0.0 | 0.00 | 0.00 | 0.00 | 69 | 1013.7 |
| 20260502110059 | 5 | 49 | 0.0 | 0.0 | 0.00 | 0.00 | 0.00 | 68 | 1013.5 |
| 20260502104555 | 5 | 49 | 0.0 | 0.0 | 0.00 | 0.00 | 0.00 | 68 | 1013.6 |
| 20260502103058 | 5 | 49 | 0.0 | 0.0 | 0.00 | 0.00 | 0.00 | 69 | 1013.4 |
| 20260502101616 | 5 | 49 | 0.0 | 0.0 | 0.00 | 0.00 | 0.00 | 69 | 1013.2 |
| 20260502100114 | 5 | 49 | 0.0 | 0.0 | 0.00 | 0.00 | 0.00 | 69 | 1013.3 |
| 20260502071533 | 6 | 49 | 0.0 | 1.6 | 0.00 | 0.00 | 0.00 | 67 | 1014.0 |
| 20260502070044 | 6 | 49 | 0.0 | 0.0 | 0.00 | 0.00 | 0.00 | 67 | 1014.1 |
| 20260502064530 | 6 | 49 | 0.0 | 0.0 | 0.00 | 0.00 | 0.00 | 67 | 1014.0 |
| 20260502063033 | 6 | 49 | 0.0 | 0.0 | 0.00 | 0.00 | 0.00 | 66 | 1014.0 |
| 20260502061529 | 6 | 49 | 0.0 | 0.0 | 0.00 | 0.00 | 0.00 | 65 | 1013.9 |
| 20260502060028 | 7 | 49 | 0.0 | 1.6 | 0.00 | 0.00 | 0.00 | 65 | 1014.1 |
| 20260502054524 | 7 | 49 | 0.0 | 0.0 | 0.00 | 0.00 | 0.00 | 65 | 1014.5 |
| 20260502053024 | 7 | 49 | 0.0 | 0.0 | 0.00 | 0.00 | 0.00 | 65 | 1014.5 |
| 20260502051527 | 7 | 49 | 0.0 | 1.6 | 0.00 | 0.00 | 0.00 | 63 | 1014.6 |
| 20260502050020 | 7 | 49 | 0.0 | 1.6 | 0.00 | 0.00 | 0.00 | 61 | 1014.7 |
| 20260502044519 | 8 | 49 | 0.0 | 0.0 | 0.00 | 0.00 | 0.00 | 59 | 1014.7 |
| 20260502043016 | 8 | 49 | 0.0 | 0.0 | 0.00 | 0.00 | 0.00 | 56 | 1014.6 |
| 20260502041513 | 8 | 49 | 0.0 | 1.6 | 0.00 | 0.00 | 0.00 | 53 | 1014.6 |